Regional Weather Roundup
Issued by NWS

Home | Current Version | Previous Version | Graphics & Text | Print | Product List | Glossary On
Versions: 1 2 3 4 5 6 7 8 9 10 11 12 13 14 15 16 17 18 19 20 21 22 23 24 25 26 27 28 29 30 31 32 33 34 35 36 37 38 39 40 41 42 43 44 45 46 47 48 49 50
000
ASUS44 KMEG 202200
RWRTN
TENNESSEE HOURLY STATE WEATHER ROUNDUP
NATIONAL WEATHER SERVICE MEMPHIS TN
500 PM CDT MON OCT 20 2014

TNZ002-004-019-021-049-052-054-088>092-202300-
WEST TENNESSEE

CITY           SKY/WX    TMP DP  RH WIND       PRES   REMARKS
MEMPHIS INTL   MOSUNNY   71  51  49 SW7       30.00F
NWS MEMPHIS      N/A     71 N/A N/A MISG        N/A
JACKSON        MOSUNNY   69  51  52 W9        30.00S
DYERSBURG      MOSUNNY   70  46  43 SW7       30.00S
UNION CITY     SUNNY     70  54  56 SW10      29.96F
PARIS          SUNNY     66  52  59 SW9       29.97F
LEXINGTON      SUNNY     68  50  52 SW6       29.99S
SAVANNAH       MOSUNNY   68  50  52 W5        30.00F
$$

TNZ008-025-027-028-033-062-065-066-202300-
NORTH MIDDLE TENNESSEE

CITY           SKY/WX    TMP DP  RH WIND       PRES   REMARKS
NASHVILLE      MOSUNNY   66  49  54 SW7       29.98F
CLARKSVILLE    SUNNY     67  52  58 SW9       29.95F
COOKEVILLE     MOSUNNY   64  52  63 W3        29.99F
CROSSVILLE     CLOUDY    61  47  59 W7        30.01R
$$

TNZ061-075-076-078-094-096-097-202300-
SOUTH MIDDLE TENNESSEE

CITY           SKY/WX    TMP DP  RH WIND       PRES   REMARKS
WINCHESTER     PTSUNNY   63  50  63 W3        30.01S
MCMINNVILLE    MOSUNNY   66  50  55 SW5       30.00S
SHELBYVILLE    CLOUDY    66  52  59 W5        30.01S
$$

TNZ017-018-042-046-047-202300-
NORTHEAST TENNESSEE

CITY           SKY/WX    TMP DP  RH WIND       PRES   REMARKS
TRI CITIES     CLOUDY    62  49  62 SW3       29.97F
ELIZABETHTON   MOCLDY    61  50  67 CALM      29.98F
$$

TNZ012-013-036-069-073-074-202300-
CENTRAL EAST TENNESSEE

CITY           SKY/WX    TMP DP  RH WIND       PRES   REMARKS
KNOXVILLE      CLOUDY    64  51  62 W8        29.97F
OAK RIDGE      CLOUDY    65  50  58 VRB3      29.99S
GATLINBURG     CLOUDY    63  48  59 W5        29.97S
MORRISTOWN     CLOUDY    63  52  67 W7        29.98F
$$

TNZ083-085-099-202300-
SOUTHEAST TENNESSEE

CITY           SKY/WX    TMP DP  RH WIND       PRES   REMARKS
CHATTANOOGA    LGT RAIN  67  50  54 W5        29.99S
$$

SKY/WX REPORTED AS FAIR MEANS FEW OR NO CLOUDS BELOW
12 THOUSAND FEET.




USA.gov is the U.S. government's official web portal to all federal, state and local government web resources and services.